Showing default

M3MSAT, 41605

Orbit data source: Space-Track

M3MSAT, 41605 is a Canadian payload satellite in SSO that was launched on Wed, 22 Jun 2016 UTC via a PSLV-XL launch vehicle from the Sirharikota (SRI). Payload-class satellites include a variety of spacecraft equipped with specific instruments for various scientific and technological missions. These include communications satellites like Starlink; space stations such as the ISS; scientific satellites like the Hubble; Earth observation satellites from companies like Planet Labs, Umbra, and HawkEye 360; GPS; miniature CubeSats for education and research; and military/defense satellites.

Loading next visibility...
Identifier
41605, 2016-040G
Orbit
SSO
Country
Flag of CACA
Related business
Manufacturer
Honeywell/ComDev
Mission
Operational Defense Communications
Bus & Motor
MMMS, Unknown motor
Mass
85 kg wet, 85 kg dry
Launch date (UTC)
2016-06-22 (9 years ago)
Launch vehicle
PSLV-XL
Launch site
Sirharikota (SRI)
Object type
Payload
Rocket body
Debris
Shape & HBR
Box, 0.4 m
Radar Cross Section
0.800 m², Medium (>0.1 m² and < 1m²)

Expand to show TLE details & history
Last TLE update: 23 hours ago

TLE from 23 hours ago
0 M3MSAT
1 41605U 16040G   25242.06834859  .00071161  00000-0  57780-3 0  9991
2 41605  97.0754 268.5429 0003811 199.1557 160.9564 15.70502145512072
Epoch: 2025-08-30T01:38Z
TLE epoch observation values (Epoch: 2025-08-30T01:38:25.318Z)
Latitude
0.00004°
Longitude
-94.57055°
Altitude
363.056 km
Speed
7.69 km/s
True Right ascension
17h 54m 10s
True Declination
0° 00' 00"
Sunlit
Object was in full shadow at epoch
Visualization orbit readout
Latitude
Unknown
Longitude
Unknown
Altitude
Unknown
Speed
Unknown
Apparent Right ascension
Unknown
Apparent Declination
Unknown
Sunlit
N/A
Visualization observer readout
Local Sidereal Time
16:00:16
Azimuth
Unknown
Elevation
Unknown
Doppler factor
Unknown
Orbital elements
Apogee altitude
356.911 km
Perigee altitude
351.78 km
Semi-major axis
6,732.483 km
Eccentricity
0.00038
Inclination
97.0754°
RAAN
268.5429°
Arg. of periapsis
199.1557°
True anomaly
160.97064°
Mean anomaly
160.9564°
Eccentric anomaly
160.96352°
Mean motion
3.92898 °/min
Orbital period
91.63 mins
BSTAR
0.0005778
Loading maneuver chart data...
Computing Atmospheric mass density...
Loading historical data...
Loading historical data...
Loading historical data...
Loading historical data...
Loading historical data...
Loading historical data...
Loading historical data...

Documentation

Showing up to 5 results
|